Tracking 25701 objects as of 3-Jul-2022
HD Live streaming from Space Station
objects crossing your sky now

FENGYUN 1C DEB

Track FENGYUN 1C DEB now!
10-day predictions


NORAD ID: 30434
Int'l Code: 1999-025AEV
Perigee: 848.2 km
Apogee: 1,031.2 km
Inclination: 99.0 °
Period: 103.7 minutes
Semi major axis: 7310 km
RCS: 0.018 m2 (small)
Launch date: May 10, 1999
Source: People's Republic of China (PRC)
Launch site: Taiyaun Space Center, China (TSC)

Note: This is SATELLITE DEBRIS
aabbcc
Your satellite tracking list
Your tracking list is empty




NASA's NSSDC Master Catalog

Two Line Element Set (TLE):
1 30434U 99025AEV 22183.81962918  .00000111  00000-0  11857-3 0  9997
2 30434  98.9656 199.9634 0125124  54.7446 119.7965 13.88882197782218
Source of the keplerian elements: AFSPC